This is the latest recevied weather packets stored in our database for station/object KE5OYL. If no packets are shown the sender has not sent any weather packets the latest 10 day(s).
| Time | Temp. | Humidity | Pressure | Rain* | Wind** | Luminosity | Snow |
|---|---|---|---|---|---|---|---|
| 1777564047 | 16.11° C | 91% | 1016.9 hPa | 0 mm | - | 61 W/m² | - |
| 1777563743 | 16.11° C | 90% | 1017 hPa | 0 mm | - | 39 W/m² | - |
| 1777563440 | 16.11° C | 90% | 1016.9 hPa | 0 mm | - | 25 W/m² | - |
| 1777563134 | 16.11° C | 90% | 1016.9 hPa | 0 mm | - | 25 W/m² | - |
| 1777562830 | 16.11° C | 89% | 1016.2 hPa | 0 mm | - | 38 W/m² | - |
| 1777562528 | 16.11° C | 89% | 1016.2 hPa | 0 mm | - | 43 W/m² | - |
| 1777562226 | 16.11° C | 89% | 1016 hPa | 0 mm | - | 50 W/m² | - |
| 1777561924 | 16.11° C | 89% | 1015.7 hPa | 0 mm | - | 47 W/m² | - |
| 1777561620 | 16.67° C | 88% | 1015.9 hPa | 0 mm | - | 67 W/m² | - |
| 1777561316 | 16.67° C | 87% | 1015.5 hPa | 0 mm | - | 84 W/m² | - |
| 1777561016 | 16.67° C | 86% | 1015.6 hPa | 0 mm | - | 80 W/m² | - |
| 1777560711 | 16.67° C | 85% | 1015.6 hPa | 0 mm | - | 65 W/m² | - |
| 1777560409 | 16.67° C | 85% | 1015.6 hPa | 0 mm | - | 54 W/m² | - |
| 1777560107 | 16.67° C | 85% | 1015.6 hPa | 0 mm | - | 51 W/m² | - |
| 1777559803 | 16.67° C | 85% | 1015.4 hPa | 0 mm | - | 54 W/m² | - |
| 1777559500 | 16.67° C | 85% | 1015.4 hPa | 0 mm | - | 56 W/m² | - |
| 1777559197 | 16.67° C | 85% | 1015.2 hPa | 0 mm | - | 53 W/m² | - |
| 1777558891 | 16.67° C | 85% | 1015.2 hPa | 0 mm | - | 69 W/m² | - |
| 1777558588 | 16.67° C | 85% | 1014.8 hPa | 0 mm | - | 108 W/m² | - |
| 1777558283 | 16.67° C | 85% | 1014.8 hPa | 0 mm | - | 75 W/m² | - |
| 1777557980 | 16.67° C | 85% | 1014.6 hPa | 0 mm | - | 81 W/m² | - |
| 1777557677 | 16.67° C | 85% | 1014.5 hPa | 0 mm | - | 81 W/m² | - |
| 1777557373 | 16.67° C | 85% | 1014.5 hPa | 0 mm | - | 112 W/m² | - |
| 1777557069 | 16.67° C | 85% | 1014.4 hPa | 0 mm | - | 123 W/m² | - |
| 1777556764 | 16.67° C | 85% | 1014.4 hPa | 0 mm | - | 107 W/m² | - |
* Rain latest hour (hover to see other rain measurements)
** Current wind speed in m/s (hover to see current wind gust speed)